Location: Chassagnes
(44.4047°N, 4.1657°E)
Time: 13:06:27
(UTC+00:00)

Aureole 3 Rocket - Pass Details

Date: 27 October 2020
Orbit: 399 x 1739 km, 82.5° (Epoch: 23 November)

Event Time Altitude Azimuth Distance (km) Brightness Sun altitude
Rises 18:05:01 0° 193° (SSW) 2,555 6.4 -15.9°
Reaches altitude 10° 18:06:51 10° 196° (SSW) 1,784 5.6 -16.2°
Maximum altitude 18:10:41 71° 281° (W) 686 3.4 -16.9°
Drops below altitude 10° 18:16:02 10° 6° (N) 2,463 6.1 -17.8°
Sets 18:18:57 0° 8° (N) 3,637 6.9 -18.3°
